Theta_e
306 307 307 308 308 308 307 307 307 306 307 307 307 306 306 307 307 304 300 299 292 289 292 295 296 291 294 293 287 292 288 287 289 282 284 284 284 286 284 288 286 284 284 285 285 284 281 295 294 290 295 300 301 303
307 307 307 307 307 307 306 306 306 306 306 306 306 306 306 306 307 307 298 300 301 295 294 299 300 300 299 299 295 293 289 287 293 286 283 286 286 287 287 281 292 286 289 286 285 284 293 296 295 300 301 299 300 302
307 307 306 306 306 305 305 305 305 305 305 305 305 306 307 307 307 306 301 300 293 290 293 292 294 301 303 302 302 292 287 295 294 296 291 288 286 289 284 285 287 291 294 289 288 293 294 297 300 301 302 301 303 305
305 305 304 304 304 304 304 304 304 305 303 303 306 306 306 307 307 306 301 297 294 296 290 291 301 299 304 302 299 296 294 294 294 291 291 288 287 295 287 289 287 292 292 290 290 294 295 296 298 300 302 304 304 305
303 302 302 302 302 302 303 303 302 302 303 303 304 305 306 307 306 305 301 299 298 295 291 293 297 300 300 300 298 297 295 294 294 291 291 289 293 294 293 292 287 292 292 288 288 294 295 295 299 302 301 302 304 304
300 300 300 300 301 302 301 302 302 302 302 303 303 304 305 306 306 297 296 301 302 300 294 286 293 296 299 300 298 296 298 296 295 292 290 291 298 293 287 285 293 293 296 298 294 299 299 300 302 303 302 303 304 304
299 299 299 299 300 300 300 301 301 303 303 304 304 305 305 305 303 296 296 301 305 305 296 289 287 298 301 299 297 296 298 298 296 294 293 290 293 293 287 282 291 295 296 296 298 299 296 300 298 302 302 303 305 305
298 298 298 298 299 299 300 301 301 302 303 304 304 304 305 305 304 298 301 305 306 301 298 287 286 290 301 295 296 301 297 298 297 293 292 291 292 290 285 291 293 295 295 296 298 298 297 298 299 299 302 303 302 302
297 297 298 298 298 298 299 301 302 303 304 304 304 305 300 297 299 303 308 308 306 301 292 290 280 279 302 300 299 298 297 290 294 291 291 292 287 283 289 292 293 294 293 296 298 297 297 298 301 301 302 302 301 301
297 297 297 298 298 299 300 301 304 303 303 305 302 299 297 299 307 306 301 297 297 297 297 291 291 285 297 297 293 294 292 289 284 290 295 289 287 295 295 296 297 298 298 298 293 294 295 297 300 300 301 303 303 303
297 297 297 298 298 299 300 301 303 303 302 294 290 293 297 303 299 298 293 290 291 290 293 291 291 287 295 291 290 291 285 288 282 288 292 290 290 294 297 298 299 299 301 299 300 297 298 301 300 301 303 304 304 304
296 296 297 298 298 299 300 302 303 294 291 292 293 298 297 295 293 291 289 291 292 288 292 290 292 293 294 298 291 291 285 288 283 292 288 286 291 296 297 297 299 299 301 299 300 300 299 301 302 303 303 303 304 306
296 296 297 298 299 300 301 301 301 301 299 297 296 292 291 290 284 286 282 288 291 295 297 295 293 295 294 295 290 288 284 282 289 280 280 287 293 298 298 298 298 298 299 300 301 300 301 300 301 302 302 303 304 305
296 296 297 299 300 299 298 298 299 297 293 293 292 285 287 284 287 288 289 292 299 300 298 296 294 293 293 290 290 285 289 288 282 280 278 289 294 299 299 300 299 297 298 299 300 299 298 298 297 301 302 303 303 301
296 296 297 299 298 298 298 298 299 294 291 288 289 283 286 291 293 294 296 295 298 301 297 295 294 293 290 290 291 287 284 279 280 278 282 291 295 298 299 298 296 298 297 298 299 298 297 298 297 297 301 302 301 300
296 295 297 299 299 298 299 297 294 295 292 290 288 285 288 287 288 290 290 291 296 297 299 296 292 289 289 289 286 285 280 278 280 287 290 295 297 298 300 301 299 299 298 298 298 299 299 298 296 297 297 299 300 299
296 291 297 298 298 298 298 292 292 290 290 289 287 290 290 289 289 291 293 292 296 296 293 295 289 288 290 286 284 285 282 285 288 291 295 296 297 299 299 300 302 301 301 300 300 300 299 298 297 297 294 295 296 298
289 291 296 297 296 295 291 293 291 288 285 287 286 287 287 288 289 291 293 295 293 296 296 292 296 289 284 284 282 288 291 292 296 298 297 298 298 299 300 299 301 301 300 301 301 300 298 296 294 294 294 294 295 295
292 294 296 297 297 292 286 289 292 285 286 287 289 292 291 291 293 294 295 296 297 298 298 296 292 287 287 291 291 293 294 297 297 296 298 299 299 301 301 301 300 300 301 299 299 298 297 297 295 294 295 294 292 293
296 297 297 297 297 288 286 285 292 288 285 287 289 288 288 289 292 292 293 294 294 294 294 292 290 292 293 295 298 296 297 299 297 295 295 297 300 300 300 298 298 301 299 299 299 297 297 296 295 295 294 293 292 291
293 294 296 293 289 289 288 286 285 286 287 285 288 286 286 288 287 289 290 292 288 289 291 294 294 296 298 297 297 299 297 298 299 298 296 296 301 302 299 299 299 300 298 297 296 296 295 295 295 296 294 293 293 292
289 295 290 291 288 287 285 287 285 285 284 284 284 285 283 283 286 287 289 287 288 290 291 293 296 299 299 298 298 298 299 299 299 299 297 297 298 297 297 299 298 298 298 298 297 296 295 295 296 296 294 293 292 293
293 292 289 289 285 282 278 287 283 284 281 283 285 284 283 283 287 292 286 289 290 293 296 296 297 299 300 301 300 300 300 299 298 299 300 300 300 299 297 298 301 299 297 296 296 295 295 292 294 297 295 294 293 292
295 288 285 284 283 277 285 282 284 284 284 281 280 280 282 283 287 285 284 287 293 297 296 296 299 298 299 298 298 299 300 299 299 298 300 299 298 297 298 300 301 300 300 298 296 295 295 296 294 295 294 293 291 291
282 277 281 275 282 281 281 281 281 281 280 282 281 281 282 286 281 282 283 289 291 292 293 296 297 297 296 298 299 299 299 300 299 298 298 299 299 299 298 300 299 300 301 298 296 295 294 294 293 293 292 291 290 291
273 279 275 280 279 279 280 279 280 279 280 280 283 285 284 282 283 283 287 289 290 291 291 291 295 295 296 298 297 296 299 300 300 299 298 298 299 299 297 296 296 296 301 300 298 296 295 293 291 291 290 289 287 290
275 274 280 284 280 280 278 280 281 279 279 278 280 280 281 280 281 286 291 292 290 292 293 295 296 295 296 297 300 302 302 301 299 300 301 301 302 302 300 298 297 298 298 299 300 298 296 293 292 291 290 289 288 288
280 282 278 280 281 281 279 278 279 279 280 284 283 281 280 282 282 290 291 293 295 296 295 297 299 301 299 299 299 300 301 302 301 301 301 302 298 298 301 301 299 289 297 298 298 298 296 295 293 291 290 288 287 287
281 283 283 279 280 281 280 279 280 281 284 284 282 281 284 288 285 285 288 289 291 292 291 292 295 298 299 296 294 293 294 296 298 297 296 294 292 293 295 296 297 297 295 292 287 293 295 295 293 292 290 288 287 286
281 284 281 281 280 279 282 285 283 285 286 285 287 287 288 286 285 287 286 286 286 287 288 290 292 291 289 290 292 291 291 291 292 292 292 293 297 298 296 296 295 294 293 292 290 289 288 290 289 290 288 287 284 282
284 284 282 282 281 284 285 287 287 287 286 284 286 285 285 285 286 286 285 286 287 287 286 286 288 289 289 287 287 288 288 289 291 291 292 298 298 298 297 295 295 293 292 291 291 291 290 290 288 287 286 284 283 282
284 284 283 282 282 286 287 285 284 285 285 286 283 285 286 282 278 282 285 286 285 284 285 286 285 286 290 290 290 289 287 288 288 289 290 290 291 294 296 296 296 296 295 294 292 291 290 288 285 285 284 283 283 282
284 285 286 285 283 282 285 284 282 282 283 281 280 283 282 280 276 282 286 287 285 285 285 285 287 289 290 290 289 289 288 289 287 285 285 285 286 287 292 294 295 295 294 293 292 291 289 288 285 284 283 282 281 281
Wind_Speed
17 18 18 17 16 16 16 16 17 18 17 17 16 16 16 15 13 3 4 4 4 5 12 12 8 5 4 3 2 5 6 4 4 6 3 3 3 3 4 2 5 2 4 2 3 2 1 20 20 11 6 8 17 18
17 17 16 15 15 15 15 16 17 18 17 17 17 17 16 16 14 7 3 3 1 5 8 7 14 19 22 25 2 2 2 2 3 3 2 3 3 3 4 4 5 2 3 4 3 3 1 1 5 6 6 10 10 13
16 15 13 14 15 16 16 17 18 18 16 16 18 18 16 16 14 8 3 2 1 4 7 3 7 8 7 15 10 4 2 3 1 1 2 3 4 1 3 2 4 4 5 1 4 6 6 3 5 8 9 12 13 15
14 14 15 16 16 16 16 17 19 19 20 20 18 18 17 17 14 11 5 3 2 4 4 7 3 6 2 7 8 6 6 1 2 1 3 3 4 3 2 4 1 2 7 8 5 5 10 8 12 11 11 12 14 18
14 16 17 18 18 18 18 18 19 20 20 21 21 20 19 18 14 10 6 6 8 3 4 7 12 8 7 12 9 6 6 3 2 1 3 4 3 2 1 3 3 0 2 4 3 9 4 11 11 16 11 12 16 18
16 16 17 18 18 18 18 19 21 22 23 22 22 21 20 17 13 2 4 3 7 7 4 5 5 4 3 7 8 7 5 3 2 3 4 4 4 2 1 2 5 5 3 4 5 5 9 14 11 8 11 11 16 16
15 17 18 19 19 20 20 21 23 23 23 23 22 21 19 14 3 4 3 2 3 3 3 6 5 4 6 4 3 3 5 3 3 3 3 4 3 4 2 2 6 6 8 6 8 8 8 8 10 11 13 11 13 13
15 16 18 19 20 21 20 22 24 25 25 25 25 22 21 14 8 6 6 11 6 3 2 3 6 5 6 4 3 4 3 3 4 3 3 3 3 2 1 7 6 5 4 3 6 2 6 8 9 8 9 9 11 9
15 17 17 19 19 20 21 23 24 25 27 27 27 20 2 2 2 2 1 6 1 3 3 3 2 5 2 2 2 2 3 2 2 4 4 4 1 3 7 6 1 2 1 4 5 7 6 7 8 7 10 9 9 11
15 17 18 18 19 19 20 21 21 23 27 23 3 1 2 2 5 2 1 1 1 2 2 4 3 5 1 1 2 2 1 3 2 5 1 1 3 4 3 6 7 6 4 6 3 7 6 6 7 8 8 9 8 9
17 17 19 19 19 19 19 19 20 20 10 6 5 3 4 14 2 3 3 3 3 4 4 5 8 4 3 3 4 2 2 2 2 4 2 1 3 2 4 6 6 4 4 6 5 2 6 6 7 11 13 11 7 8
17 18 19 20 20 19 19 19 13 4 2 5 7 6 3 3 3 3 4 4 6 5 5 5 6 6 4 3 3 2 1 2 5 3 2 2 3 2 1 4 4 5 3 5 5 6 4 6 9 9 9 10 10 9
17 19 21 22 20 18 13 15 17 17 13 3 2 3 2 3 2 5 5 4 4 2 3 3 3 5 2 3 2 2 1 5 2 4 3 4 3 3 5 3 4 4 5 6 6 4 4 6 7 10 11 12 12 12
18 20 21 21 10 12 16 17 18 10 4 3 3 5 5 5 6 6 5 3 3 6 11 4 3 4 3 3 3 2 4 2 2 2 5 4 5 6 4 3 4 2 6 6 6 6 7 6 7 8 9 12 12 14
19 21 21 10 12 16 17 19 17 3 2 4 3 6 8 7 5 4 6 4 7 4 5 2 2 4 2 3 3 2 1 3 5 6 5 4 7 6 4 3 3 3 5 5 4 5 5 5 6 7 10 10 11 14
18 19 2 12 19 22 23 13 4 4 3 4 6 5 5 3 4 3 3 5 5 3 2 3 1 4 4 4 4 6 5 6 6 4 4 3 5 4 5 5 5 4 5 6 6 5 4 5 6 6 8 10 10 12
14 4 17 20 23 24 24 3 2 4 5 6 6 5 8 8 9 9 7 5 4 2 4 3 4 7 2 3 4 5 6 5 5 4 3 6 8 9 6 4 3 6 6 7 4 4 4 3 5 7 10 10 11 13
4 7 17 21 18 12 2 3 3 5 7 6 4 5 4 4 7 8 7 8 3 3 1 5 3 3 4 5 4 5 4 3 4 3 4 6 6 5 5 6 5 7 8 6 5 5 5 5 5 5 7 7 8 9
9 10 18 22 13 4 3 4 3 6 8 4 6 8 6 7 7 9 8 9 6 6 3 3 4 4 5 4 4 2 4 4 4 4 4 6 9 8 6 7 4 7 8 7 5 4 4 5 4 4 5 5 6 5
20 19 18 18 12 2 4 5 3 5 5 5 3 6 4 5 6 4 5 5 3 4 3 5 6 5 5 5 6 6 6 5 4 4 2 1 2 6 6 5 4 6 6 6 5 6 5 4 3 4 5 6 7 7
9 3 2 4 2 4 4 4 5 5 5 4 3 3 4 4 4 5 4 2 1 4 3 4 4 5 6 5 5 5 6 7 7 7 6 5 6 6 3 4 6 8 8 6 5 4 5 5 4 4 6 6 5 5
5 8 3 4 4 4 5 5 5 5 4 5 7 4 4 4 4 3 4 2 4 5 4 5 7 7 7 6 6 7 7 7 6 4 5 6 4 4 4 5 6 7 6 7 6 5 4 4 5 6 7 5 6 7
9 3 3 3 5 4 8 3 4 4 4 4 4 5 4 4 5 3 3 4 6 5 7 8 10 13 11 11 4 3 7 10 7 6 8 7 5 5 4 7 9 10 6 3 4 5 4 6 7 8 8 6 6 7
7 2 4 4 5 5 4 4 4 4 4 6 5 9 10 6 6 5 7 2 6 9 10 15 13 7 5 0 3 4 5 4 7 6 7 6 4 2 6 8 8 8 8 7 6 6 6 7 7 8 9 8 7 7
2 6 3 6 5 4 5 4 4 3 7 6 6 4 3 4 3 4 2 5 7 9 11 12 10 11 4 5 3 5 5 8 9 10 4 6 8 6 3 8 7 8 9 9 5 7 6 7 7 8 9 9 9 9
5 6 8 5 4 4 3 6 5 5 10 6 4 4 3 3 2 6 4 7 7 8 11 11 9 9 12 5 4 3 4 3 6 8 3 5 10 13 12 11 9 4 7 9 10 11 10 9 9 11 9 9 9 10
5 7 5 4 3 3 4 6 8 5 8 6 4 3 3 4 3 1 1 3 5 6 12 10 8 8 8 4 5 7 5 2 4 4 5 5 8 6 7 10 9 8 8 10 11 12 13 12 10 10 9 6 6 7
6 4 7 7 6 4 7 5 4 3 5 2 4 5 2 2 2 3 4 8 6 7 11 12 8 8 6 7 8 8 9 7 6 8 7 6 5 5 9 6 5 8 8 10 11 11 11 13 12 12 12 10 7 6
5 4 4 9 7 5 6 6 6 5 4 2 0 3 2 3 5 5 5 8 8 8 8 10 10 8 7 8 10 10 10 10 7 6 7 4 4 2 4 9 9 8 8 8 8 11 14 13 13 12 13 10 7 6
6 5 4 4 4 5 5 5 4 4 3 3 3 4 2 3 4 6 7 9 9 8 8 7 8 9 9 10 9 11 11 9 7 5 3 3 3 6 2 6 9 8 9 11 11 11 16 15 14 11 11 8 6 6
4 2 4 5 5 6 9 8 5 4 3 4 4 5 4 5 2 6 11 9 8 7 8 9 8 9 8 9 8 8 7 9 11 10 7 4 6 3 3 4 6 6 8 10 10 11 12 11 10 11 11 10 9 7
4 6 3 3 4 4 3 4 4 3 1 3 6 5 4 4 5 6 7 10 9 9 9 7 7 8 8 7 8 7 6 6 8 9 13 10 10 11 8 5 5 6 8 9 9 10 14 14 11 11 10 11 10 8
5 6 1 2 3 4 3 2 1 2 7 5 7 6 5 4 4 4 6 8 7 6 6 6 5 5 9 9 10 9 10 9 13 15 16 16 17 15 11 10 11 11 11 9 11 12 14 17 13 13 12 11 10 9
Wind_Direction
304 301 301 302 306 307 308 309 309 308 312 313 315 319 317 314 312 281 252 232 168 258 278 256 261 229 255 222 245 327 337 356 306 25 345 321 293 326 315 306 324 307 295 299 291 264 332 355 358 52 347 329 330 319
298 302 305 308 308 308 307 308 309 306 306 311 315 313 310 308 305 291 245 201 177 246 269 305 267 245 240 251 201 196 244 230 289 346 350 301 289 299 310 343 312 303 349 325 350 333 107 165 13 4 318 314 303 307
304 308 313 314 310 311 311 311 308 307 312 315 309 306 308 305 299 296 256 227 52 257 273 257 257 286 213 222 180 167 249 282 25 151 276 273 286 245 333 279 278 323 354 55 228 172 292 39 51 347 306 297 320 302
312 316 316 312 313 314 311 311 316 314 316 313 310 310 311 306 301 291 253 176 176 275 275 280 291 286 113 151 159 147 139 21 219 147 249 265 269 229 264 288 255 326 318 307 248 7 347 3 344 332 332 335 319 320
320 319 319 318 318 318 316 316 314 313 310 311 310 312 312 311 305 289 248 218 199 247 292 294 298 273 196 152 153 138 148 169 207 258 237 236 246 276 329 277 294 43 320 326 320 335 320 290 310 324 332 336 323 331
326 324 323 323 320 320 320 316 313 313 312 309 308 307 307 306 312 318 296 167 188 192 281 303 289 300 90 147 152 183 179 179 202 194 230 264 245 161 185 274 271 249 208 222 265 282 285 285 291 309 318 316 320 316
329 326 325 325 323 322 319 318 314 315 311 309 304 299 296 292 261 230 242 177 95 170 262 295 289 280 151 121 207 211 187 211 204 237 227 224 269 132 124 211 266 264 261 264 254 278 295 311 318 321 310 327 319 312
328 327 330 328 327 326 320 319 317 316 311 306 301 298 292 276 265 257 248 248 179 204 235 263 273 326 169 174 234 163 191 195 212 228 268 207 320 99 229 243 263 316 349 311 346 343 280 302 317 326 328 316 306 316
326 327 327 326 325 326 326 322 319 314 307 304 301 306 60 88 197 302 20 96 117 173 233 222 208 264 243 70 272 220 164 227 207 220 239 121 197 205 219 219 245 270 310 276 323 339 346 339 343 334 334 327 318 320
327 327 325 324 326 326 325 322 331 332 319 314 338 127 122 57 291 295 357 136 240 255 259 242 207 268 259 163 313 285 198 231 249 240 251 154 238 219 270 183 157 190 198 287 319 346 319 324 342 328 315 302 305 314
325 327 324 325 326 325 322 321 322 334 343 1 1 345 314 296 232 206 213 176 191 230 217 232 202 216 255 169 208 177 231 286 330 285 161 281 311 251 107 152 192 175 204 257 276 17 338 333 345 341 343 335 310 304
326 325 323 324 323 320 312 315 336 358 259 263 278 297 276 282 249 250 219 214 200 232 204 194 200 186 256 99 87 327 167 8 256 320 70 237 262 299 61 63 140 123 93 36 35 35 25 12 345 342 351 353 345 350
324 324 324 322 318 313 334 339 329 315 313 283 205 241 210 243 240 219 222 222 220 241 204 219 168 154 57 85 103 100 85 239 3 31 238 233 255 339 308 104 130 100 100 67 64 37 18 3 357 358 352 0 13 19
319 322 323 321 322 336 329 323 317 322 297 268 238 256 207 214 233 206 216 228 210 179 264 198 147 142 154 111 140 152 234 65 337 268 242 230 217 198 260 279 119 145 83 93 76 73 49 14 350 15 13 16 20 28
322 319 315 301 325 328 329 324 310 262 260 262 253 240 225 226 265 248 242 260 280 269 297 95 1 118 150 159 175 160 232 255 204 229 235 228 202 204 285 273 171 136 98 103 79 92 62 29 17 14 34 37 38 38
321 319 207 342 340 335 323 319 285 190 246 237 239 273 281 284 276 320 293 294 300 272 33 360 2 163 184 164 149 201 142 228 247 215 223 194 126 158 183 208 196 176 128 120 91 79 60 30 41 31 31 35 45 51
318 232 330 328 326 323 308 252 254 231 246 233 242 233 249 273 270 276 277 266 296 339 173 144 234 233 150 153 186 167 202 220 207 224 218 179 179 208 178 224 225 183 121 130 122 98 108 44 39 63 48 29 29 45
247 282 309 313 322 315 275 222 243 238 248 244 251 255 237 224 268 273 267 270 225 250 191 185 178 281 210 179 244 233 205 226 234 216 206 192 215 222 184 217 220 130 132 131 123 107 97 88 65 84 66 41 37 42
287 296 302 302 309 304 287 269 206 260 240 240 247 255 247 257 247 253 269 273 256 238 186 109 266 203 212 216 207 193 168 184 214 225 225 194 192 213 197 200 160 132 140 138 135 134 129 132 113 103 100 87 77 53
297 293 287 290 298 232 263 261 258 260 258 244 266 278 253 252 260 249 272 280 280 290 245 194 194 213 202 214 180 196 206 192 132 147 215 244 140 143 169 191 157 144 121 128 135 117 109 97 76 89 92 81 75 59
308 235 337 347 267 209 265 272 260 247 271 285 304 339 271 323 302 283 269 263 301 224 270 258 235 240 240 235 200 191 194 176 182 169 179 197 193 181 184 128 132 141 146 144 132 131 121 149 156 117 98 100 91 83
252 283 266 213 230 245 236 229 232 290 314 276 296 256 249 275 281 267 270 227 220 248 240 245 260 256 259 236 230 199 198 178 171 158 130 121 157 174 197 169 125 142 149 146 148 153 141 144 136 120 104 89 74 69
265 207 221 256 243 230 255 182 236 227 240 263 345 345 322 303 264 294 305 291 286 273 298 272 258 250 236 246 214 206 158 148 163 180 173 189 188 191 136 147 142 143 142 152 135 134 129 130 130 125 117 100 95 81
205 249 251 243 211 251 264 248 222 244 287 300 293 284 280 265 269 277 261 313 15 346 355 349 345 338 336 127 171 168 224 197 172 163 165 155 142 86 146 144 149 139 147 147 139 127 121 113 112 116 117 113 101 99
287 267 211 263 267 239 246 232 219 249 321 314 267 242 308 318 279 243 269 13 334 355 351 344 346 351 316 299 319 300 270 161 163 163 176 138 120 94 115 141 147 157 149 138 129 129 118 115 110 116 124 121 118 116
241 241 187 223 244 242 333 333 31 343 319 299 296 283 313 278 300 25 24 358 356 347 343 334 326 338 323 322 333 326 306 115 135 148 180 153 147 158 160 160 155 173 166 150 142 143 139 135 130 124 122 128 126 122
238 263 239 236 240 288 289 292 303 293 294 287 271 283 15 2 333 57 0 358 344 347 335 322 327 310 290 309 357 6 328 46 135 151 123 132 113 104 131 154 174 183 166 159 151 153 148 141 140 133 125 111 111 120
241 270 259 262 254 242 273 279 288 260 247 247 0 344 292 261 341 12 29 336 318 334 340 334 316 340 353 26 26 19 22 20 54 83 78 34 57 124 172 191 166 153 134 134 143 143 143 144 142 140 133 125 118 116
248 270 318 272 268 248 244 236 225 214 229 276 21 286 283 69 353 341 331 343 357 11 359 344 346 0 10 25 39 33 28 25 31 61 61 5 343 360 137 148 143 127 120 101 84 132 135 135 137 131 128 128 127 117
253 218 250 252 245 234 224 207 242 275 279 219 223 244 84 92 23 1 1 7 9 6 347 345 356 8 3 15 26 35 33 27 20 13 350 95 109 309 3 133 126 120 114 107 103 103 104 107 109 113 115 113 104 104
275 267 234 232 252 241 246 262 261 247 231 228 221 243 111 138 107 28 17 358 350 353 359 6 10 3 16 24 25 18 22 8 8 12 359 31 21 70 86 142 114 121 117 121 124 125 126 122 122 120 119 119 118 113
249 233 232 245 276 277 265 221 204 219 197 34 36 6 94 72 44 6 6 352 351 356 354 353 359 6 17 22 27 33 15 4 4 18 35 38 40 31 8 47 93 109 101 106 108 123 125 122 121 125 121 117 115 115
270 300 274 256 277 281 249 123 300 62 53 52 31 25 48 63 77 354 341 355 345 332 335 331 329 1 37 36 31 29 26 25 25 31 38 41 43 38 28 37 50 54 61 76 95 101 104 114 120 125 124 124 128 128